TimeEDT,TemperatureF,Dew PointF,Humidity,Sea Level PressureIn,VisibilityMPH,Wind Direction,Wind SpeedMPH,Gust SpeedMPH,PrecipitationIn,Events,Conditions,WindDirDegrees,DateUTC
12:54 AM,45.0,33.1,63,30.29,10.0,East,4.6,-,N/A,,Partly Cloudy,100,2012-10-13 04:54:00
1:54 AM,44.1,34.0,68,30.28,10.0,ESE,5.8,-,N/A,,Partly Cloudy,120,2012-10-13 05:54:00
2:54 AM,44.1,34.0,68,30.27,10.0,ESE,5.8,-,N/A,,Partly Cloudy,110,2012-10-13 06:54:00
3:54 AM,44.1,35.1,71,30.26,10.0,ESE,6.9,-,N/A,,Partly Cloudy,120,2012-10-13 07:54:00
4:54 AM,45.0,35.1,68,30.24,10.0,SE,6.9,-,N/A,,Mostly Cloudy,130,2012-10-13 08:54:00
5:54 AM,45.0,35.1,68,30.22,10.0,SE,9.2,-,N/A,,Scattered Clouds,130,2012-10-13 09:54:00
6:54 AM,45.0,36.0,71,30.21,10.0,SE,8.1,-,N/A,,Scattered Clouds,130,2012-10-13 10:54:00
7:54 AM,46.9,37.0,68,30.21,10.0,SE,8.1,-,N/A,,Mostly Cloudy,140,2012-10-13 11:54:00
8:54 AM,48.0,39.0,71,30.20,10.0,SSE,10.4,-,N/A,,Mostly Cloudy,150,2012-10-13 12:54:00
9:54 AM,51.1,41.0,68,30.18,10.0,SE,9.2,-,N/A,,Overcast,140,2012-10-13 13:54:00
10:54 AM,54.0,45.0,72,30.17,10.0,South,8.1,-,N/A,,Overcast,170,2012-10-13 14:54:00
11:54 AM,59.0,48.0,67,30.14,10.0,South,4.6,-,N/A,,Overcast,170,2012-10-13 15:54:00
12:54 PM,63.0,53.1,70,30.13,10.0,SSW,17.3,-,N/A,,Overcast,200,2012-10-13 16:54:00
1:28 PM,64.4,55.4,73,30.10,10.0,South,13.8,-,N/A,,Overcast,180,2012-10-13 17:28:00
1:54 PM,64.4,55.4,73,30.08,10.0,South,10.4,-,N/A,,Overcast,190,2012-10-13 17:54:00
2:29 PM,66.2,57.2,73,30.07,10.0,South,10.4,-,N/A,,Overcast,180,2012-10-13 18:29:00
2:54 PM,66.0,59.0,78,30.05,9.0,South,10.4,-,N/A,,Overcast,180,2012-10-13 18:54:00
3:07 PM,66.2,60.8,83,30.04,9.0,South,8.1,-,N/A,,Overcast,170,2012-10-13 19:07:00
3:35 PM,66.2,60.8,83,30.04,9.0,South,8.1,-,N/A,,Overcast,180,2012-10-13 19:35:00
3:54 PM,68.0,61.0,78,30.04,9.0,South,10.4,-,N/A,,Mostly Cloudy,190,2012-10-13 19:54:00
4:05 PM,68.0,60.8,78,30.03,9.0,South,10.4,-,N/A,,Overcast,190,2012-10-13 20:05:00
4:54 PM,66.9,62.1,84,30.01,5.0,South,12.7,-,0.00,Rain,Light Rain,180,2012-10-13 20:54:00
5:54 PM,68.0,62.1,81,30.00,8.0,South,8.1,-,0.00,,Overcast,170,2012-10-13 21:54:00
6:54 PM,68.0,62.1,81,30.00,8.0,South,9.2,-,0.00,,Overcast,180,2012-10-13 22:54:00
7:54 PM,68.0,62.6,83,29.98,9.0,South,11.5,-,N/A,,Overcast,170,2012-10-13 23:54:00
8:54 PM,68.0,62.1,81,29.93,9.0,South,13.8,-,N/A,,Overcast,170,2012-10-14 00:54:00
9:54 PM,68.0,62.6,83,29.96,10.0,South,16.1,-,N/A,,Overcast,190,2012-10-14 01:54:00
10:54 PM,68.0,62.1,81,29.96,10.0,SSW,10.4,-,N/A,,Overcast,200,2012-10-14 02:54:00
11:54 PM,66.2,62.6,88,29.95,10.0,South,10.4,-,N/A,,Overcast,180,2012-10-14 03:54:00